Regional Weather Roundup
Issued by NWS

Home | Current Version | Previous Version | Graphics & Text | Print | Product List | Glossary On
Versions: 1 2 3 4 5 6 7 8 9 10 11 12 13 14 15 16 17 18 19 20 21 22 23 24 25 26 27 28 29 30 31 32 33 34 35 36 37 38 39 40 41 42 43 44 45
000
ASUS45 KSLC 252010
RWRUT

UTAH REGIONAL WEATHER ROUNDUP
NATIONAL WEATHER SERVICE SALT LAKE CITY UT
100 PM MST THU DEC 25 2014

UTZ001>011-023>025-252100-

NORTHERN UTAH

CITY           SKY/WX    TMP DP  RH WIND       PRES   REMARKS
BRIGHAM CITY   CLOUDY    30  27  88 S3        29.68R
HILL AFB       FLURRIES  28  27  93 NW7       29.66R WCI  21
LOGAN          LGT SNOW  29  26  89 SE3       29.65R FOG
OGDEN          CLOUDY    29  26  89 W7        29.66S FOG     WCI  22
PROVO AIRPORT  NOT AVBL
SALT LAKE CITY SNOW      29  26  89 W12       29.68R VSB 1/2 WCI  19
VERNAL         LGT SNOW  28  26  92 W3        29.53R VSB 3/4
WENDOVER       CLOUDY    30  19  64 NW17G37   29.71F WCI  18
HEBER CITY     LGT SNOW  27  21  80 SW6       29.60S WCI  20
WEST JORDAN    CLOUDY    30  27  86 CALM      29.66S

$$

UTZ012>022-026-027-252100-

SOUTHERN/CENTRAL UTAH

CITY           SKY/WX    TMP DP  RH WIND       PRES   REMARKS
BLANDING       CLOUDY    38  20  47 SW18G29   29.60F WCI  29
BRYCE CANYON   LGT SNOW  23  14  68 NW15G24   29.57S WCI  10
CEDAR CITY     LGT SNOW  24  21  88 W6        29.68S VSB 1   WCI  17
DELTA          CLOUDY    30  20  67 N10       29.71R WCI  21
MILFORD        CLOUDY    29  19  66 N12       29.70S WCI  19
MOAB/CYNLANDS  LGT SNOW  31  28  89 W9        29.53F FOG     WCI  23
PRICE          CLOUDY    28  18  66 NW12      29.53R WCI  18
ST GEORGE      CLOUDY    46  12  25 NW15G23   29.74F
KANAB          MOSUNNY   37  21  52 W16       29.68F WCI  28

$$

REGIONAL REPORTS     COLORADO/ARIZONA

CITY           SKY/WX    TMP DP  RH WIND       PRES   REMARKS
CRAIG, CO      CLOUDY    33  29  85 CALM      29.48S
GRAND JUNCTION CLOUDY    33  31  92 W10       29.50F WCI  25
RIFLE          LGT SNOW  29  26  89 E5        29.51F FOG     WCI  24
MONTROSE       PTSUNNY   41  23  48 S8G17     29.52F
CORTEZ         CLOUDY    38  20  48 SW13      29.57F WCI  30
PAGE, AZ       CLOUDY    42  17  36 W12G20    29.61S
GRAND CANYON   PTSUNNY   31  16  54 W9        29.64F WCI  23
KINGMAN        MOSUNNY   47  18  31 N24G31    29.76F
FLAGSTAFF      FLURRIES  30  22  72 SW12      29.64F WCI  20

$$

REGIONAL REPORTS    NEVADA/IDAHO/WYOMING

CITY           SKY/WX    TMP DP  RH WIND       PRES   REMARKS
LAS VEGAS, NV  MOSUNNY   50   7  17 NW22G36   29.79F
ELY            FLURRIES  24  14  65 N9        29.74F WCI  14
ELKO           CLOUDY    28  16  60 NW13      29.84S WCI  17
POCATELLO, ID  CLOUDY    30  24  78 N16       29.70R WCI  19
EVANSTON, WY   SNOW      21  19  92 SW14      29.53S VSB 1/2 WCI   8
ROCK SPRINGS   SNOW      20  17  88 NE26G41   29.52R VSB 1/2 WCI   2

$$


USA.gov is the U.S. government's official web portal to all federal, state and local government web resources and services.